[[{"header":{"parameterUnit":"m.s-1","parameterCategory":2,"la1":30.2991,"la2":30.254,"lo1":-89.0895,"lo2":-89.0444,"dy":0.0017,"dx":0.0017,"nx":28,"ny":28,"refTime":"2025-12-20T09:00:00:Z","depth":"0","parameterNumber":2,"parameterNumberName":"U-component_of_CURRENTS"},"data":[0,0,0,0,0,0,0,0,0,0,0,0,0,0,0,0,0,0,0,0,0,0,0,0,0,0,0,0,0,0,0,0,0,0,0,0,0,0,0,0,0,0,0,0,0,0,0,0,0,0,0,0,0,0,0,0,0,0,-0.1556,-0.1557,0,-0.1608,-0.1609,-0.1609,-0.1583,-0.1582,-0.1581,-0.158,-0.1519,-0.1518,-0.1517,0,0,0,0,0,0,0,0,0,0,0,0,0,-0.1433,-0.1435,-0.1556,-0.1557,-0.1558,-0.1608,-0.1609,-0.1609,-0.1583,-0.1582,-0.1581,-0.1579,-0.1519,-0.1518,-0.1517,0,0,0,0,0,0,0,0,0,0,0,0,0,-0.1484,-0.1436,-0.1556,-0.1553,-0.1553,-0.1608,-0.1609,-0.1609,-0.1584,-0.1582,-0.158,-0.1579,-0.1519,-0.1518,-0.1517,-0.1545,0,0,-0.1515,-0.1514,0,0,0,0,0,0,0,0,-0.1481,-0.1488,-0.1552,-0.1553,-0.1554,-0.159,-0.1543,-0.1583,-0.1584,-0.1569,-0.158,-0.1578,-0.1535,-0.1533,-0.1544,-0.1542,-0.154,-0.1514,-0.1514,-0.1514,-0.1513,0,0,0,0,0,0,0,-0.1477,-0.1485,-0.1574,-0.1554,-0.1555,-0.1549,-0.1554,-0.1551,-0.1557,-0.1571,-0.1569,-0.158,-0.1534,-0.1545,-0.1542,-0.1539,-0.1514,-0.1514,-0.1513,-0.1513,-0.1568,-0.157,0,0,0,0,0,0,-0.1479,-0.1483,-0.1572,-0.1576,-0.1516,-0.1553,-0.1558,-0.1578,-0.1559,-0.1556,-0.1582,-0.1579,-0.1547,-0.1543,-0.154,-0.1589,-0.1514,-0.1513,-0.1512,-0.1566,-0.1569,-0.1571,0,0,0,0,0,0,-0.1476,-0.1487,-0.157,-0.1531,-0.1542,-0.1557,-0.1579,-0.158,-0.1584,-0.1569,-0.1563,-0.1584,-0.1546,-0.1541,-0.1543,-0.1585,-0.1512,-0.1511,-0.1564,-0.1567,-0.157,-0.1677,0,0,0,0,0,0,-0.1473,-0.1486,-0.1494,-0.1532,-0.1544,-0.1612,-0.1581,-0.1582,-0.1595,-0.1592,-0.157,-0.1563,-0.1544,-0.1544,-0.1542,-0.1583,-0.1511,-0.1561,-0.1565,-0.1569,-0.1671,-0.1683,-0.1693,0,0,0,0,0,-0.1468,-0.1493,-0.1495,-0.1505,-0.1558,-0.1614,-0.162,-0.1622,-0.1597,-0.1615,-0.1596,-0.1563,-0.1567,-0.1545,-0.1542,-0.1584,-0.156,-0.1564,-0.1569,-0.1665,-0.168,-0.1693,0,0,0,0,0,0,-0.1446,-0.1494,-0.1496,-0.1534,-0.1574,-0.161,-0.1624,-0.1625,-0.1627,-0.1614,-0.1584,-0.1578,-0.1597,-0.1576,-0.1553,-0.1612,-0.156,-0.1564,-0.1635,-0.1649,-0.166,-0.1683,-0.151,0,0,0,0,0,-0.1448,-0.1472,-0.1523,-0.1551,-0.1572,-0.1596,-0.1614,-0.1624,-0.1635,-0.1634,-0.1623,-0.1611,-0.1618,-0.1619,-0.1616,-0.1646,-0.1637,-0.1673,-0.1684,-0.1694,-0.1711,-0.1786,-0.1806,-0.1586,-0.1586,-0.1586,0,0,-0.1447,-0.1474,-0.1488,-0.1547,-0.1571,-0.162,-0.1602,-0.1641,-0.1676,-0.1627,-0.1655,-0.1645,-0.1632,-0.1669,-0.1677,-0.1655,-0.1738,-0.17,-0.1709,-0.172,-0.1793,-0.1815,-0.1834,-0.1589,-0.1588,-0.1588,0,0,-0.1463,-0.1485,-0.1514,-0.1555,-0.1604,-0.1632,-0.1644,-0.1689,-0.1701,-0.1733,-0.1712,-0.1747,-0.173,-0.1766,-0.177,-0.1848,-0.1793,-0.1823,-0.1907,-0.1979,-0.1999,-0.2016,-0.1972,-0.1985,-0.1836,-0.1836,-0.1836,0,-0.1459,-0.1505,-0.1532,-0.1579,-0.1614,-0.1639,-0.1689,-0.172,-0.1758,-0.1792,-0.1749,-0.1811,-0.1794,-0.1882,-0.1896,-0.188,-0.1857,-0.1854,-0.1997,-0.2014,-0.2029,-0.1981,-0.1994,-0.1842,-0.1841,-0.184,-0.184,0,-0.1504,-0.1543,-0.1567,-0.1632,-0.1678,-0.1725,-0.1782,-0.1824,-0.1832,-0.1873,-0.1949,-0.1953,-0.1997,-0.2,-0.1957,-0.2069,-0.199,-0.1999,-0.1964,-0.2058,-0.2,-0.2011,-0.185,-0.1848,-0.1846,-0.1845,0,0,-0.1491,-0.158,-0.1587,-0.1619,-0.1709,-0.1747,-0.183,-0.1923,-0.1988,-0.2029,-0.2121,-0.2155,-0.2169,-0.2176,-0.2162,-0.2218,-0.2278,-0.2141,-0.2143,-0.21,-0.2343,-0.226,-0.2262,-0.2304,-0.2308,-0.2312,-0.2235,0,-0.1516,-0.1587,-0.1641,-0.1717,-0.1761,-0.1832,-0.1909,-0.1997,-0.2064,-0.216,-0.222,-0.2283,-0.2233,-0.2251,-0.2312,-0.2286,-0.2321,-0.2292,-0.2256,-0.2253,-0.2174,-0.228,-0.2168,-0.2091,-0.2246,-0.2247,-0.2249,0,-0.1542,-0.1585,-0.1654,-0.1755,-0.1784,-0.1836,-0.1971,-0.2044,-0.2203,-0.2259,-0.2373,-0.2409,-0.2496,-0.2441,-0.2487,-0.2456,-0.2406,-0.2385,-0.2383,-0.2286,-0.2196,-0.2035,-0.2105,-0.208,-0.2265,-0.2264,-0.2263,0,-0.149,-0.1595,-0.1638,-0.1674,-0.1798,-0.1845,-0.1909,-0.2067,-0.2143,-0.2321,-0.2399,-0.2525,-0.2559,-0.2581,-0.2512,-0.2502,-0.2529,-0.2523,-0.2404,-0.2391,-0.2283,-0.2257,-0.2338,-0.2582,-0.2582,-0.2582,-0.2583,0,-0.149,-0.1526,-0.1607,-0.1629,-0.1693,-0.1796,-0.1893,-0.1998,-0.2164,-0.2265,-0.2423,-0.2515,-0.2598,-0.262,-0.256,-0.2493,-0.257,-0.2435,-0.2406,-0.2306,-0.2284,-0.2245,-0.2257,-0.2579,-0.258,-0.2581,-0.2581,0,-0.1429,-0.1487,-0.1533,-0.1635,-0.1663,-0.1696,-0.1829,-0.1906,-0.2082,-0.2222,-0.2276,-0.2493,-0.2531,-0.2563,-0.2574,-0.2529,-0.2442,-0.2438,-0.2254,-0.2208,-0.2104,-0.2124,-0.2168,-0.2109,-0.2328,-0.2326,-0.2325,0,-0.1409,-0.142,-0.149,-0.1499,-0.1534,-0.16,-0.1646,-0.1823,-0.1904,-0.2184,-0.2228,-0.2377,-0.244,-0.2438,-0.2407,-0.2327,-0.2332,-0.2183,-0.2199,-0.2109,-0.2111,-0.213,-0.2079,-0.205,-0.2046,-0.2043,-0.2041,0,-0.1356,-0.1367,-0.1393,-0.1401,-0.1424,-0.1468,-0.154,-0.1594,-0.1809,-0.1947,-0.2104,-0.2195,-0.2275,-0.2221,-0.2176,-0.2114,-0.2142,-0.2119,-0.212,-0.1995,-0.1933,-0.1853,-0.2007,-0.2014,-0.2017,-0.2019,-0.202,-0.2021,-0.1297,-0.1286,-0.1297,-0.1302,-0.1321,-0.132,-0.1305,-0.1391,-0.1487,-0.1662,-0.1869,-0.1993,-0.2053,-0.2009,-0.1951,-0.1855,-0.1932,-0.181,-0.1856,-0.1893,-0.1832,-0.1878,-0.1812,-0.1814,-0.1815,-0.1816,-0.1817,0,-0.1234,-0.1215,-0.12,-0.119,-0.1161,-0.1206,-0.1228,-0.1189,-0.1207,-0.1415,-0.1545,-0.174,-0.1698,-0.1748,-0.1688,-0.1618,-0.1587,-0.1591,-0.161,-0.1581,-0.1688,-0.1671,-0.146,-0.146,-0.146,-0.146,-0.146,-0.146,-0.1199,-0.1151,-0.1136,-0.1045,-0.1026,-0.0946,-0.0921,-0.0859,-0.093,-0.1037,-0.123,-0.1453,-0.1566,-0.1698,-0.1602,-0.1521,-0.1499,-0.1449,-0.1495,-0.1582,-0.1607,-0.163,-0.1619,-0.1401,-0.1401,-0.131,-0.131,-0.1309]},{"header":{"parameterUnit":"m.s-1","parameterCategory":2,"la1":30.2991,"la2":30.254,"lo1":-89.0895,"lo2":-89.0444,"dy":0.0017,"dx":0.0017,"nx":28,"ny":28,"refTime":"2025-12-20T09:00:00:Z","depth":"0","parameterNumber":3,"parameterNumberName":"V-component_of_CURRENTS"},"data":[0,0,0,0,0,0,0,0,0,0,0,0,0,0,0,0,0,0,0,0,0,0,0,0,0,0,0,0,0,0,0,0,0,0,0,0,0,0,0,0,0,0,0,0,0,0,0,0,0,0,0,0,0,0,0,0,0,0,-0.013,-0.0129,0,0.0016,0.0017,0.0019,0.0132,0.0133,0.0135,0.0136,0.0306,0.0309,0.0313,0,0,0,0,0,0,0,0,0,0,0,0,0,-0.0221,-0.022,-0.013,-0.0128,-0.0127,0.0016,0.0018,0.002,0.0132,0.0134,0.0135,0.0136,0.0305,0.0309,0.0313,0,0,0,0,0,0,0,0,0,0,0,0,0,-0.0139,-0.022,-0.0131,-0.0053,-0.0045,0.0015,0.0018,0.002,0.0132,0.0134,0.0135,0.0137,0.0303,0.0308,0.0314,0.0313,0,0,0.033,0.0332,0,0,0,0,0,0,0,0,-0.0144,-0.0136,-0.0066,-0.0058,-0.0049,0.0058,0.0048,0.0119,0.0131,0.0065,0.0136,0.0138,0.0224,0.0236,0.0259,0.0321,0.0328,0.033,0.0333,0.0336,0.0337,0,0,0,0,0,0,0,-0.015,-0.0141,-0.0073,-0.0064,-0.0054,0.0006,0.0018,0.0063,0.0133,0.0071,0.0079,0.0095,0.0229,0.0254,0.0264,0.0331,0.033,0.0335,0.0338,0.034,0.0402,0.0401,0,0,0,0,0,0,-0.0174,-0.0148,-0.0077,-0.0068,-0.0093,0.0005,0.002,0.0022,0.0133,0.0151,0.0094,0.01,0.0244,0.0258,0.027,0.0275,0.0336,0.034,0.0343,0.0404,0.0402,0.0401,0,0,0,0,0,0,-0.0177,-0.017,-0.0083,-0.0103,-0.0088,0.0005,0.0007,0.0024,0.0054,0.015,0.0169,0.0107,0.0246,0.0263,0.0307,0.0282,0.0343,0.0348,0.0406,0.0403,0.0401,0.0284,0,0,0,0,0,0,-0.0181,-0.0173,-0.0179,-0.0106,-0.0088,-0.0061,0.0006,0.0025,0.0061,0.0071,0.0167,0.0185,0.0248,0.0299,0.0312,0.0291,0.0352,0.0408,0.0405,0.0402,0.029,0.0278,0.0268,0,0,0,0,0,-0.0185,-0.0208,-0.018,-0.0171,-0.01,-0.0062,-0.0048,0.0025,0.006,0.006,0.0129,0.0182,0.029,0.0302,0.0318,0.0297,0.0409,0.0405,0.0402,0.0294,0.028,0.0268,0,0,0,0,0,0,-0.0249,-0.0196,-0.0165,-0.0169,-0.0123,-0.0043,-0.0035,0.0013,0.0068,0.008,0.0171,0.0192,0.0219,0.0269,0.028,0.0305,0.0355,0.0354,0.0267,0.0255,0.0244,0.0237,0.0356,0,0,0,0,0,-0.0268,-0.0271,-0.0207,-0.021,-0.0195,-0.0117,-0.0091,-0.0045,0.0014,0.0041,0.0108,0.0171,0.0214,0.0244,0.0291,0.0308,0.0377,0.0302,0.0291,0.0281,0.0285,0.0374,0.0372,0.039,0.039,0.039,0,0,-0.0291,-0.0264,-0.0262,-0.0224,-0.0182,-0.0171,-0.0098,-0.0071,-0.0058,0.0048,0.008,0.0136,0.0209,0.023,0.0245,0.0273,0.0306,0.0277,0.0268,0.0278,0.037,0.0369,0.0368,0.0387,0.0388,0.0388,0,0,-0.0344,-0.032,-0.0337,-0.031,-0.0259,-0.0216,-0.0215,-0.0144,-0.0109,-0.0074,-0.0002,0.0043,0.0113,0.0162,0.0195,0.015,0.0243,0.0153,0.01,0.0185,0.0185,0.0186,0.0247,0.0255,0.0151,0.0151,0.0151,0,-0.037,-0.0383,-0.0336,-0.0343,-0.0327,-0.0246,-0.0257,-0.0217,-0.0139,-0.0116,-0.008,0.0028,0.0083,0.012,0.01,0.0127,0.0186,0.0144,0.0173,0.0175,0.0179,0.0242,0.0251,0.0145,0.0146,0.0146,0.0147,0,-0.0429,-0.0435,-0.0447,-0.043,-0.0412,-0.0409,-0.0351,-0.033,-0.0278,-0.0221,-0.0171,-0.0085,-0.0016,-0.0007,0.0035,0.0068,0.0104,0.0147,0.0208,0.017,0.0238,0.025,0.0136,0.0138,0.014,0.0142,0,0,-0.0486,-0.0489,-0.0489,-0.0497,-0.0457,-0.0449,-0.0443,-0.0405,-0.0388,-0.0312,-0.0275,-0.0211,-0.0147,-0.0107,-0.0046,0.002,0.0074,0.008,0.0088,0.0144,0.0251,0.0287,0.0305,0.013,0.0131,0.0133,0.0282,0,-0.0538,-0.0583,-0.0565,-0.0597,-0.0611,-0.0556,-0.0557,-0.0512,-0.0449,-0.0395,-0.0297,-0.0239,-0.019,-0.0155,-0.0085,0.0053,0.0106,0.003,0.0278,0.0285,0.0326,0.032,0.0351,0.0488,0.0295,0.0297,0.0298,0,-0.0588,-0.0613,-0.0664,-0.068,-0.0682,-0.0691,-0.0667,-0.0654,-0.0565,-0.0514,-0.0429,-0.0331,-0.0228,-0.0179,0.0033,-0.0014,0.0093,0.0196,0.0205,0.0294,0.0345,0.0501,0.052,0.0667,0.0319,0.0317,0.0315,0,-0.0638,-0.0677,-0.0724,-0.0727,-0.0734,-0.075,-0.0747,-0.0688,-0.0677,-0.0573,-0.0521,-0.0385,-0.0275,-0.013,0.0075,0.0063,0.0321,0.0339,0.0464,0.0467,0.0572,0.0582,0.0771,0.0467,0.0467,0.0466,0.0466,0,-0.0687,-0.0718,-0.0755,-0.0775,-0.0832,-0.0813,-0.0842,-0.0809,-0.0758,-0.0717,-0.0582,-0.0475,-0.0249,-0.0068,0.0073,0.032,0.0327,0.0461,0.0516,0.0527,0.053,0.0727,0.0777,0.0472,0.0471,0.0469,0.0468,0,-0.0709,-0.0736,-0.0791,-0.0833,-0.0854,-0.0887,-0.0918,-0.0931,-0.086,-0.0792,-0.0757,-0.0515,-0.0259,-0.0057,0.0226,0.035,0.0651,0.062,0.0603,0.0652,0.089,0.0931,0.1179,0.127,0.0787,0.0789,0.0791,0,-0.0718,-0.0754,-0.0832,-0.0878,-0.0899,-0.0954,-0.0996,-0.0985,-0.0991,-0.0791,-0.0756,-0.0478,-0.0254,0.0162,0.0409,0.0656,0.0757,0.0826,0.0802,0.0917,0.1004,0.1028,0.1087,0.0888,0.0891,0.0892,0.0894,0,-0.0729,-0.0761,-0.0804,-0.0907,-0.0974,-0.1049,-0.1101,-0.1136,-0.1078,-0.0964,-0.0713,-0.0496,-0.0065,0.0295,0.0592,0.074,0.0939,0.0872,0.1022,0.1122,0.1135,0.1244,0.0755,0.091,0.0909,0.0908,0.0907,0.0906,-0.0724,-0.0761,-0.0833,-0.0927,-0.1013,-0.1116,-0.1171,-0.1211,-0.1179,-0.0991,-0.0696,-0.0303,0.0166,0.0628,0.0796,0.114,0.1099,0.1248,0.1293,0.1311,0.1385,0.0909,0.1105,0.1104,0.1104,0.1103,0.1103,0,-0.0722,-0.0772,-0.0854,-0.0966,-0.106,-0.1105,-0.1216,-0.1258,-0.1227,-0.0948,-0.0643,0.0034,0.0485,0.0881,0.1347,0.155,0.1589,0.165,0.1703,0.1749,0.1373,0.1362,0.1586,0.1586,0.1586,0.1586,0.1585,0.1585,-0.0723,-0.0792,-0.0841,-0.098,-0.1055,-0.1163,-0.1226,-0.1275,-0.1157,-0.0784,-0.0333,0.0089,0.068,0.1439,0.1894,0.1939,0.2114,0.2096,0.2192,0.1933,0.1898,0.1865,0.187,0.2196,0.2197,0.2558,0.2562,0.2565]}],[{"header":{"parameterUnit":"m.s-1","parameterCategory":2,"la1":30.2991,"la2":30.254,"lo1":-89.0895,"lo2":-89.0444,"dy":0.0017,"dx":0.0017,"nx":28,"ny":28,"refTime":"2025-12-20T09:00:00:Z","depth":"2","parameterNumber":2,"parameterNumberName":"U-component_of_CURRENTS"},"data":[0,0,0,0,0,0,0,0,0,0,0,0,0,0,0,0,0,0,0,0,0,0,0,0,0,0,0,0,0,0,0,0,0,0,0,0,0,0,0,0,0,0,0,0,0,0,0,0,0,0,0,0,0,0,0,0,0,0,-0.206,-0.2061,0,-0.2132,-0.2133,-0.2134,-0.2144,-0.2144,-0.2143,-0.2143,-0.2182,-0.2183,-0.2185,0,0,0,0,0,0,0,0,0,0,0,0,0,-0.1958,-0.196,-0.206,-0.2061,-0.2062,-0.2132,-0.2133,-0.2134,-0.2145,-0.2144,-0.2143,-0.2142,-0.2181,-0.2183,-0.2185,0,0,0,0,0,0,0,0,0,0,0,0,0,-0.2013,-0.196,-0.206,-0.2075,-0.2078,-0.2132,-0.2133,-0.2134,-0.2145,-0.2144,-0.2143,-0.2142,-0.218,-0.2183,-0.2185,-0.222,0,0,-0.2193,-0.2194,0,0,0,0,0,0,0,0,-0.201,-0.2017,-0.2072,-0.2074,-0.2077,-0.2129,-0.2112,-0.2161,-0.2145,-0.2119,-0.2142,-0.2141,-0.2162,-0.2166,-0.2182,-0.2222,-0.2223,-0.2193,-0.2194,-0.2196,-0.2196,0,0,0,0,0,0,0,-0.2006,-0.2014,-0.2088,-0.2073,-0.2076,-0.2089,-0.2095,-0.2122,-0.2144,-0.2121,-0.2122,-0.2131,-0.2162,-0.2179,-0.2182,-0.2224,-0.2193,-0.2195,-0.2197,-0.2198,-0.2274,-0.2274,0,0,0,0,0,0,-0.1998,-0.2011,-0.2086,-0.209,-0.2041,-0.2091,-0.2098,-0.2113,-0.2145,-0.2149,-0.2132,-0.2131,-0.2175,-0.218,-0.2184,-0.2231,-0.2195,-0.2198,-0.2199,-0.2273,-0.2274,-0.2275,0,0,0,0,0,0,-0.1996,-0.2004,-0.2083,-0.2052,-0.2063,-0.2094,-0.211,-0.2115,-0.215,-0.2153,-0.2156,-0.2163,-0.2175,-0.218,-0.2217,-0.2232,-0.2199,-0.2201,-0.2273,-0.2274,-0.2274,-0.2322,0,0,0,0,0,0,-0.1993,-0.2003,-0.2028,-0.2052,-0.2064,-0.2114,-0.2111,-0.2117,-0.2155,-0.2156,-0.2181,-0.2183,-0.2174,-0.2214,-0.222,-0.2235,-0.2203,-0.2272,-0.2273,-0.2274,-0.232,-0.2324,-0.2328,0,0,0,0,0,-0.1989,-0.2025,-0.2029,-0.2038,-0.2091,-0.2115,-0.2123,-0.2141,-0.2158,-0.2171,-0.2193,-0.2183,-0.2223,-0.2217,-0.2224,-0.224,-0.2272,-0.2273,-0.2274,-0.2318,-0.2323,-0.2328,0,0,0,0,0,0,-0.1992,-0.203,-0.2034,-0.208,-0.2093,-0.2117,-0.2154,-0.216,-0.2192,-0.2204,-0.2206,-0.2209,-0.2237,-0.2239,-0.2232,-0.2261,-0.224,-0.2243,-0.2271,-0.2276,-0.228,-0.2285,-0.2205,0,0,0,0,0,-0.2004,-0.2057,-0.2061,-0.2109,-0.2117,-0.2141,-0.2164,-0.2166,-0.2191,-0.2206,-0.2221,-0.2237,-0.2247,-0.2263,-0.2267,-0.2306,-0.228,-0.2314,-0.2318,-0.2322,-0.2329,-0.232,-0.2324,-0.2279,-0.2279,-0.2279,0,0,-0.2013,-0.2056,-0.2076,-0.2116,-0.2142,-0.2145,-0.2154,-0.219,-0.2211,-0.2206,-0.2259,-0.2256,-0.2259,-0.2283,-0.2296,-0.2291,-0.2313,-0.2323,-0.2327,-0.2332,-0.2321,-0.2326,-0.233,-0.228,-0.2279,-0.2279,0,0,-0.2041,-0.21,-0.2123,-0.214,-0.2175,-0.2188,-0.2199,-0.2219,-0.2252,-0.2301,-0.2283,-0.2297,-0.2341,-0.2326,-0.233,-0.2369,-0.2331,-0.2363,-0.2401,-0.2393,-0.2396,-0.2399,-0.234,-0.2337,-0.2372,-0.2372,-0.2373,0,-0.2054,-0.2081,-0.2132,-0.2149,-0.2173,-0.2203,-0.2204,-0.2246,-0.2277,-0.2329,-0.2325,-0.2372,-0.2364,-0.2383,-0.2379,-0.238,-0.235,-0.2384,-0.2399,-0.2401,-0.2404,-0.2342,-0.2339,-0.2375,-0.2375,-0.2374,-0.2374,0,-0.2059,-0.2091,-0.212,-0.2153,-0.2182,-0.2207,-0.2242,-0.2302,-0.236,-0.2394,-0.2454,-0.2438,-0.2462,-0.245,-0.2431,-0.2434,-0.2396,-0.2399,-0.2387,-0.2411,-0.2344,-0.234,-0.2378,-0.2378,-0.2377,-0.2376,0,0,-0.2055,-0.2107,-0.2117,-0.2136,-0.2189,-0.2215,-0.2295,-0.2368,-0.2452,-0.2484,-0.2548,-0.2558,-0.2552,-0.2551,-0.2507,-0.2492,-0.2459,-0.2452,-0.2451,-0.2394,-0.24,-0.2358,-0.2348,-0.2468,-0.2468,-0.2468,-0.2334,0,-0.204,-0.2064,-0.2103,-0.214,-0.2146,-0.2235,-0.2323,-0.2409,-0.2496,-0.2567,-0.2582,-0.2615,-0.2589,-0.2581,-0.2565,-0.2459,-0.2455,-0.2492,-0.2384,-0.238,-0.2342,-0.2346,-0.2176,-0.2043,-0.233,-0.2329,-0.2328,0,-0.204,-0.2039,-0.2051,-0.2161,-0.2181,-0.2222,-0.2393,-0.2467,-0.2597,-0.2668,-0.2707,-0.2701,-0.2647,-0.2635,-0.2521,-0.2541,-0.2491,-0.243,-0.2424,-0.2371,-0.2332,-0.2071,-0.2024,-0.2321,-0.2321,-0.2322,-0.2322,0,-0.2012,-0.2054,-0.2072,-0.2087,-0.217,-0.2249,-0.2341,-0.2505,-0.2603,-0.2698,-0.2733,-0.2723,-0.2639,-0.2613,-0.2494,-0.2503,-0.2364,-0.2364,-0.2293,-0.2287,-0.2115,-0.2094,-0.235,-0.235,-0.235,-0.2351,-0.2351,0,-0.1996,-0.2019,-0.2065,-0.2048,-0.2134,-0.2231,-0.237,-0.2493,-0.2626,-0.27,-0.2747,-0.2711,-0.263,-0.2545,-0.2495,-0.2353,-0.2374,-0.2293,-0.2261,-0.2123,-0.2106,-0.2337,-0.2337,-0.2346,-0.2347,-0.2348,-0.2349,0,-0.1965,-0.1983,-0.2006,-0.2071,-0.211,-0.218,-0.2366,-0.2476,-0.2605,-0.2667,-0.268,-0.2642,-0.2516,-0.2476,-0.2346,-0.2298,-0.2222,-0.22,-0.2018,-0.1971,-0.2141,-0.2145,-0.207,-0.2067,-0.2065,-0.2064,-0.2062,0,-0.1949,-0.1943,-0.2005,-0.2012,-0.2034,-0.2147,-0.2253,-0.2444,-0.2533,-0.2601,-0.259,-0.2498,-0.2393,-0.2199,-0.212,-0.2049,-0.2149,-0.1871,-0.1889,-0.2141,-0.2118,-0.2125,-0.2132,-0.1645,-0.1641,-0.1637,-0.1634,0,-0.1879,-0.1929,-0.1915,-0.1942,-0.2009,-0.2092,-0.2229,-0.2291,-0.2476,-0.2476,-0.2385,-0.2295,-0.2137,-0.1907,-0.1868,-0.1816,-0.1871,-0.1792,-0.2083,-0.1775,-0.174,-0.1719,-0.1739,-0.16,-0.1603,-0.1606,-0.1607,-0.1609,-0.1853,-0.1843,-0.1855,-0.1883,-0.1952,-0.2015,-0.2043,-0.2125,-0.2163,-0.2128,-0.2114,-0.1918,-0.186,-0.1647,-0.1576,-0.1531,-0.1661,-0.1587,-0.1599,-0.1614,-0.1622,-0.1589,-0.1417,-0.142,-0.1422,-0.1423,-0.1425,0,-0.1818,-0.1805,-0.181,-0.182,-0.1854,-0.1935,-0.2013,-0.1949,-0.1877,-0.1839,-0.1712,-0.1474,-0.1346,-0.1345,-0.122,-0.1211,-0.1195,-0.1164,-0.1138,-0.1172,-0.1202,-0.1191,-0.087,-0.0869,-0.0867,-0.0866,0,0,-0.1787,-0.1757,-0.1749,-0.1721,-0.1744,-0.1736,-0.1743,-0.1584,-0.1504,-0.1286,-0.1192,-0.1223,-0.1274,-0.1062,-0.1026,-0.0924,-0.1032,-0.0874,-0.1315,-0.1315,-0.1343,-0.1439,-0.1459,0,0,0,0,0]},{"header":{"parameterUnit":"m.s-1","parameterCategory":2,"la1":30.2991,"la2":30.254,"lo1":-89.0895,"lo2":-89.0444,"dy":0.0017,"dx":0.0017,"nx":28,"ny":28,"refTime":"2025-12-20T09:00:00:Z","depth":"2","parameterNumber":3,"parameterNumberName":"V-component_of_CURRENTS"},"data":[0,0,0,0,0,0,0,0,0,0,0,0,0,0,0,0,0,0,0,0,0,0,0,0,0,0,0,0,0,0,0,0,0,0,0,0,0,0,0,0,0,0,0,0,0,0,0,0,0,0,0,0,0,0,0,0,0,0,0.0004,0.0005,0,0.009,0.0091,0.0092,0.0114,0.0113,0.0112,0.0111,0.0197,0.02,0.0203,0,0,0,0,0,0,0,0,0,0,0,0,0,-0.0047,-0.0047,0.0004,0.0005,0.0006,0.009,0.0091,0.0093,0.0114,0.0113,0.0112,0.0111,0.0196,0.0199,0.0203,0,0,0,0,0,0,0,0,0,0,0,0,0,0.0002,-0.0047,0.0004,0.0025,0.0028,0.009,0.0091,0.0093,0.0114,0.0113,0.0112,0.0111,0.0195,0.0199,0.0203,0.0253,0,0,0.0217,0.0219,0,0,0,0,0,0,0,0,-0.0001,0.0004,0.0021,0.0024,0.0027,0.0088,0.0104,0.0146,0.0114,0.0083,0.0111,0.011,0.016,0.0167,0.0189,0.0257,0.0261,0.0217,0.022,0.0222,0.0223,0,0,0,0,0,0,0,-0.0004,0.0001,0.004,0.0022,0.0025,0.0062,0.0068,0.0113,0.0128,0.0086,0.0087,0.0094,0.0161,0.0184,0.0191,0.0262,0.0217,0.0221,0.0224,0.0226,0.0362,0.0363,0,0,0,0,0,0,-0.0023,-0.0002,0.0037,0.0043,0.0008,0.0064,0.007,0.0071,0.0128,0.0135,0.0095,0.0095,0.0177,0.0186,0.0194,0.0225,0.0222,0.0226,0.0229,0.0361,0.0362,0.0363,0,0,0,0,0,0,-0.0024,-0.002,0.0034,0.0021,0.003,0.0065,0.0067,0.0074,0.0093,0.0134,0.0141,0.0106,0.0177,0.0188,0.0243,0.023,0.0228,0.0232,0.036,0.0361,0.0363,0.0308,0,0,0,0,0,0,-0.0026,-0.0021,-0.0025,0.0019,0.003,0.0064,0.0068,0.0076,0.0098,0.0098,0.0147,0.0154,0.0177,0.0237,0.0248,0.0236,0.0236,0.0359,0.0361,0.0362,0.0309,0.0308,0.0307,0,0,0,0,0,-0.0028,-0.0034,-0.0025,-0.0021,0.0023,0.0064,0.0074,0.0097,0.0099,0.011,0.0151,0.0152,0.0255,0.0242,0.0254,0.0243,0.0358,0.036,0.0362,0.0309,0.0308,0.0307,0,0,0,0,0,0,-0.0059,-0.0031,-0.0021,-0.0019,0.0018,0.0067,0.0077,0.0098,0.0141,0.014,0.0178,0.019,0.0231,0.0257,0.0242,0.0291,0.0301,0.0306,0.0257,0.0256,0.0255,0.0202,0.0239,0,0,0,0,0,-0.0067,-0.0065,-0.0025,-0.0021,-0.0006,0.0038,0.0058,0.0077,0.0119,0.0136,0.0176,0.0216,0.0253,0.0269,0.0313,0.0348,0.0366,0.0348,0.0346,0.0345,0.0313,0.0351,0.0349,0.037,0.037,0.037,0,0,-0.0079,-0.0062,-0.0061,-0.0027,0.0002,0.0024,0.0047,0.0074,0.0096,0.014,0.0185,0.0222,0.0266,0.0301,0.032,0.0317,0.0355,0.0348,0.0346,0.0314,0.0353,0.035,0.0348,0.0372,0.0372,0.0371,0,0,-0.01,-0.0084,-0.0088,-0.0059,-0.0021,0.0012,0.0018,0.0073,0.0097,0.0156,0.018,0.0208,0.0288,0.0295,0.0313,0.0336,0.0355,0.0354,0.0294,0.0332,0.0329,0.0327,0.0364,0.0366,0.0343,0.0343,0.0343,0,-0.0118,-0.0117,-0.008,-0.0071,-0.0056,0.0003,0.0007,0.0053,0.0121,0.0127,0.0163,0.0238,0.0277,0.0282,0.0283,0.0327,0.0355,0.029,0.0326,0.0324,0.0323,0.0362,0.0364,0.0341,0.0341,0.0341,0.0341,0,-0.0137,-0.0134,-0.013,-0.0103,-0.0076,-0.0061,-0.0001,0.0032,0.0076,0.0105,0.014,0.0204,0.0223,0.0251,0.0273,0.0269,0.0296,0.0326,0.0318,0.0317,0.0359,0.0362,0.0337,0.0338,0.0339,0.0339,0,0,-0.019,-0.0156,-0.0157,-0.0159,-0.0097,-0.0084,-0.0042,-0.001,-0.0017,0.0067,0.0064,0.0125,0.0129,0.0148,0.0179,0.0207,0.0233,0.0248,0.0251,0.0263,0.0318,0.0351,0.0359,0.0272,0.0272,0.0272,0.0356,0,-0.022,-0.023,-0.0194,-0.0196,-0.0196,-0.0136,-0.0113,-0.0077,-0.0033,-0.0012,0.0043,0.0056,0.0101,0.0094,0.0131,0.0212,0.0237,0.0207,0.0334,0.0337,0.035,0.0361,0.0329,0.0402,0.0359,0.036,0.036,0,-0.0255,-0.0258,-0.0273,-0.0267,-0.0264,-0.0251,-0.0237,-0.0206,-0.0162,-0.014,-0.0121,-0.0072,-0.0038,0.0016,0.0128,0.011,0.0187,0.0262,0.0268,0.0309,0.0376,0.0396,0.041,0.0366,0.0366,0.0365,0.0365,0,-0.0324,-0.0319,-0.0341,-0.0333,-0.0305,-0.0308,-0.0292,-0.0259,-0.0268,-0.0235,-0.0242,-0.0179,-0.0132,-0.0036,0.0114,0.0116,0.0266,0.0296,0.0398,0.0402,0.04,0.0404,0.0359,0.0359,0.0359,0.0359,0.0359,0,-0.0371,-0.0391,-0.0382,-0.0391,-0.0435,-0.0385,-0.0424,-0.0405,-0.0397,-0.0418,-0.0333,-0.0314,-0.014,-0.0025,0.0091,0.026,0.0249,0.0374,0.0421,0.0385,0.0387,0.0371,0.0371,0.0362,0.0361,0.0361,0.036,0,-0.0434,-0.0421,-0.0458,-0.0458,-0.0465,-0.0496,-0.0516,-0.055,-0.0526,-0.0542,-0.054,-0.0408,-0.0242,-0.0067,0.0132,0.0242,0.0388,0.0445,0.0394,0.0431,0.0501,0.0498,0.0555,0.0557,0.0558,0.056,0.0561,0,-0.0466,-0.0488,-0.0526,-0.0563,-0.0564,-0.0601,-0.0632,-0.0624,-0.0652,-0.0591,-0.0599,-0.0442,-0.0315,-0.0003,0.0219,0.043,0.0436,0.0519,0.0509,0.0479,0.0519,0.0513,0.0508,0.0497,0.0498,0.0498,0.0498,0,-0.053,-0.0545,-0.0576,-0.0658,-0.0703,-0.0751,-0.0782,-0.0823,-0.0789,-0.0767,-0.0673,-0.0562,-0.0249,0.0018,0.0303,0.042,0.0482,0.0534,0.0523,0.0451,0.0431,0.0468,0.0464,0.0502,0.0501,0.0501,0.0501,0.0501,-0.0582,-0.0629,-0.068,-0.0758,-0.0822,-0.088,-0.0915,-0.0908,-0.0911,-0.0841,-0.0719,-0.052,-0.0262,0.0154,0.0355,0.0545,0.0542,0.0586,0.0582,0.0578,0.0555,0.0538,0.0624,0.0625,0.0625,0.0625,0.0626,0,-0.0642,-0.0698,-0.0781,-0.0865,-0.0951,-0.0962,-0.1007,-0.0991,-0.0954,-0.0834,-0.0708,-0.042,-0.0133,0.0125,0.0428,0.0606,0.0587,0.0631,0.057,0.0566,0.0562,0.0535,0.0602,0.0602,0.0603,0.0603,0,0,-0.0674,-0.076,-0.0804,-0.0955,-0.1027,-0.1105,-0.1126,-0.1048,-0.0948,-0.0781,-0.063,-0.0448,-0.0127,0.0081,0.0308,0.0468,0.0468,0.0478,0.0478,0.0375,0.0369,0.0517,0.0469,0,0,0,0,0]}],[{"header":{"parameterUnit":"m.s-1","parameterCategory":2,"la1":30.2991,"la2":30.254,"lo1":-89.0895,"lo2":-89.0444,"dy":0.0017,"dx":0.0017,"nx":28,"ny":28,"refTime":"2025-12-20T09:00:00:Z","depth":"4","parameterNumber":2,"parameterNumberName":"U-component_of_CURRENTS"},"data":[0,0,0,0,0,0,0,0,0,0,0,0,0,0,0,0,0,0,0,0,0,0,0,0,0,0,0,0,0,0,0,0,0,0,0,0,0,0,0,0,0,0,0,0,0,0,0,0,0,0,0,0,0,0,0,0,0,0,-0.1168,-0.1169,0,-0.1215,-0.1216,-0.1216,-0.1248,-0.1249,-0.1249,-0.125,-0.1287,-0.1287,-0.1288,0,0,0,0,0,0,0,0,0,0,0,0,0,-0.1091,-0.1092,-0.1168,-0.1169,-0.117,-0.1215,-0.1216,-0.1216,-0.1248,-0.1249,-0.1249,-0.125,-0.1286,-0.1287,-0.1288,0,0,0,0,0,0,0,0,0,0,0,0,0,-0.1128,-0.1092,-0.1168,-0.1193,-0.1195,-0.1215,-0.1216,-0.1216,-0.1248,-0.1249,-0.1249,-0.125,-0.1286,-0.1287,-0.1288,-0.1281,0,0,-0.1291,-0.1291,0,0,0,0,0,0,0,0,-0.1126,-0.1131,-0.1188,-0.1191,-0.1194,-0.1228,-0.1202,-0.1238,-0.1248,-0.1226,-0.125,-0.125,-0.1267,-0.1269,-0.1274,-0.1283,-0.1285,-0.1291,-0.1291,-0.1292,-0.1292,0,0,0,0,0,0,0,-0.1123,-0.1129,-0.1185,-0.1189,-0.1193,-0.1196,-0.1202,-0.1209,-0.1241,-0.1228,-0.1231,-0.1239,-0.1268,-0.1274,-0.1276,-0.1285,-0.1291,-0.1292,-0.1292,-0.1293,-0.1354,-0.1356,0,0,0,0,0,0,-0.1122,-0.1126,-0.1184,-0.1187,-0.1163,-0.1197,-0.1204,-0.1215,-0.1241,-0.1246,-0.1238,-0.124,-0.1272,-0.1274,-0.1277,-0.1336,-0.1292,-0.1293,-0.1293,-0.1353,-0.1355,-0.1356,0,0,0,0,0,0,-0.112,-0.1126,-0.1182,-0.1159,-0.1166,-0.1198,-0.1211,-0.1216,-0.1244,-0.1249,-0.1254,-0.1264,-0.1272,-0.1276,-0.1307,-0.1335,-0.1293,-0.1294,-0.1352,-0.1354,-0.1355,-0.1411,0,0,0,0,0,0,-0.1117,-0.1125,-0.1139,-0.1159,-0.1168,-0.1208,-0.121,-0.1216,-0.1247,-0.1251,-0.1273,-0.1275,-0.1273,-0.1305,-0.1308,-0.1335,-0.1295,-0.1351,-0.1353,-0.1355,-0.1408,-0.1414,-0.142,0,0,0,0,0,-0.1114,-0.1128,-0.114,-0.1147,-0.1184,-0.1209,-0.1214,-0.1236,-0.1248,-0.1264,-0.1283,-0.1276,-0.132,-0.1307,-0.1309,-0.1338,-0.135,-0.1352,-0.1355,-0.1405,-0.1413,-0.142,0,0,0,0,0,0,-0.11,-0.1133,-0.1146,-0.117,-0.1195,-0.1215,-0.1233,-0.1249,-0.1276,-0.1286,-0.129,-0.1294,-0.133,-0.1325,-0.1311,-0.1361,-0.1334,-0.1337,-0.1371,-0.1379,-0.1385,-0.1382,-0.1295,0,0,0,0,0,-0.1104,-0.1124,-0.1154,-0.1174,-0.119,-0.1216,-0.1232,-0.1251,-0.1274,-0.1288,-0.1303,-0.132,-0.1338,-0.1353,-0.1362,-0.139,-0.1388,-0.141,-0.1416,-0.1421,-0.1421,-0.1435,-0.1442,-0.1364,-0.1364,-0.1364,0,0,-0.1105,-0.1124,-0.1138,-0.1172,-0.1194,-0.1224,-0.1228,-0.1262,-0.1292,-0.1286,-0.1333,-0.1342,-0.1349,-0.1382,-0.1398,-0.1386,-0.1448,-0.1424,-0.1429,-0.1425,-0.1438,-0.1446,-0.1452,-0.1366,-0.1365,-0.1365,0,0,-0.111,-0.1136,-0.1156,-0.1181,-0.122,-0.124,-0.1256,-0.1293,-0.1318,-0.1357,-0.1364,-0.1393,-0.1417,-0.1432,-0.144,-0.1485,-0.1477,-0.149,-0.1524,-0.1538,-0.1545,-0.155,-0.158,-0.1588,-0.1496,-0.1496,-0.1497,0,-0.1112,-0.1142,-0.1165,-0.1191,-0.1219,-0.1252,-0.1286,-0.1313,-0.1356,-0.1377,-0.1381,-0.1429,-0.1441,-0.148,-0.15,-0.15,-0.1508,-0.1497,-0.1546,-0.1551,-0.1556,-0.1585,-0.1593,-0.1499,-0.1499,-0.1499,-0.1499,0,-0.1128,-0.1163,-0.1177,-0.1225,-0.1256,-0.1291,-0.1335,-0.1372,-0.1406,-0.1427,-0.1476,-0.1493,-0.152,-0.1533,-0.1534,-0.1577,-0.1573,-0.155,-0.1527,-0.1567,-0.1596,-0.1603,-0.1504,-0.1503,-0.1502,-0.1501,0,0,-0.1105,-0.1177,-0.1185,-0.1219,-0.1282,-0.131,-0.1367,-0.1421,-0.1459,-0.1497,-0.1539,-0.1578,-0.1584,-0.1594,-0.1601,-0.1619,-0.1674,-0.1605,-0.1604,-0.1634,-0.1719,-0.1581,-0.1575,-0.1657,-0.1658,-0.1658,-0.1734,0,-0.1115,-0.1168,-0.1207,-0.1272,-0.1307,-0.1363,-0.1413,-0.1466,-0.1505,-0.1551,-0.1576,-0.1613,-0.1608,-0.1629,-0.1649,-0.1667,-0.1691,-0.1656,-0.1675,-0.1676,-0.1547,-0.1578,-0.1662,-0.1739,-0.174,-0.1742,-0.1742,0,-0.1112,-0.1155,-0.1216,-0.1305,-0.1329,-0.1373,-0.146,-0.151,-0.1573,-0.1605,-0.1641,-0.1653,-0.1704,-0.168,-0.1737,-0.1715,-0.1724,-0.173,-0.1732,-0.1583,-0.1549,-0.1684,-0.1755,-0.1754,-0.1753,-0.1752,-0.1751,0,-0.1071,-0.116,-0.1211,-0.1241,-0.1344,-0.1389,-0.1447,-0.1521,-0.1566,-0.1635,-0.1663,-0.1712,-0.1748,-0.1763,-0.1779,-0.1767,-0.1822,-0.1806,-0.1692,-0.1684,-0.1764,-0.1756,-0.1832,-0.1832,-0.1832,-0.1832,-0.1831,0,-0.1051,-0.1097,-0.12,-0.1229,-0.13,-0.1379,-0.1451,-0.1512,-0.1591,-0.163,-0.1685,-0.171,-0.1767,-0.1795,-0.1801,-0.1765,-0.1843,-0.1699,-0.1686,-0.1789,-0.1784,-0.177,-0.1762,-0.1834,-0.1834,-0.1833,-0.1833,0,-0.0987,-0.1057,-0.1122,-0.1239,-0.1278,-0.1326,-0.1446,-0.1487,-0.1578,-0.1629,-0.1652,-0.1733,-0.1763,-0.1797,-0.1835,-0.1781,-0.1767,-0.1731,-0.1859,-0.1852,-0.1624,-0.1618,-0.1623,-0.1619,-0.1615,-0.1612,-0.1609,0,-0.0957,-0.0982,-0.1105,-0.1139,-0.1194,-0.1281,-0.1333,-0.1458,-0.1495,-0.1619,-0.1625,-0.1693,-0.1724,-0.1681,-0.1729,-0.1724,-0.1693,-0.1689,-0.1633,-0.1612,-0.16,-0.16,-0.1599,-0.1603,-0.1602,-0.1601,-0.16,0,-0.0895,-0.0942,-0.0994,-0.1058,-0.112,-0.1187,-0.127,-0.1296,-0.1426,-0.1529,-0.1546,-0.1553,-0.1582,-0.1597,-0.1597,-0.159,-0.1692,-0.1649,-0.1657,-0.1604,-0.1588,-0.1579,-0.1583,-0.1587,-0.1589,-0.159,-0.1591,0,-0.0842,-0.0854,-0.0914,-0.0961,-0.1027,-0.1054,-0.1129,-0.1182,-0.1247,-0.1392,-0.1398,-0.1471,-0.1565,-0.1528,-0.1532,-0.1506,-0.1481,-0.1431,-0.145,-0.1465,-0.1371,-0.1324,-0.123,0,0,0,0,0,-0.0781,-0.0777,-0.0811,-0.0853,-0.0906,-0.094,-0.1061,-0.114,-0.1278,-0.1248,-0.132,-0.1334,-0.1337,-0.1386,-0.1324,-0.1452,-0.1481,-0.1374,-0.1433,-0.1515,-0.153,-0.1429,0,0,0,0,0,0,-0.0739,-0.076,-0.0771,-0.0738,-0.0736,-0.0785,-0.0854,-0.0958,-0.0962,-0.1107,-0.1119,-0.1224,-0.125,-0.133,-0.1279,-0.1293,-0.1298,-0.1432,-0.1428,-0.1506,-0.152,-0.1532,-0.1434,0,0,0,0,0]},{"header":{"parameterUnit":"m.s-1","parameterCategory":2,"la1":30.2991,"la2":30.254,"lo1":-89.0895,"lo2":-89.0444,"dy":0.0017,"dx":0.0017,"nx":28,"ny":28,"refTime":"2025-12-20T09:00:00:Z","depth":"4","parameterNumber":3,"parameterNumberName":"V-component_of_CURRENTS"},"data":[0,0,0,0,0,0,0,0,0,0,0,0,0,0,0,0,0,0,0,0,0,0,0,0,0,0,0,0,0,0,0,0,0,0,0,0,0,0,0,0,0,0,0,0,0,0,0,0,0,0,0,0,0,0,0,0,0,0,-0.0029,-0.0028,0,0.0007,0.0008,0.0008,0.0028,0.0028,0.0028,0.0028,0.0086,0.0087,0.0089,0,0,0,0,0,0,0,0,0,0,0,0,0,-0.0038,-0.0038,-0.0029,-0.0028,-0.0028,0.0007,0.0008,0.0008,0.0028,0.0028,0.0028,0.0028,0.0085,0.0087,0.0089,0,0,0,0,0,0,0,0,0,0,0,0,0,-0.0022,-0.0038,-0.0029,-0.0013,-0.0011,0.0007,0.0008,0.0008,0.0028,0.0028,0.0028,0.0028,0.0085,0.0087,0.0089,0.01,0,0,0.0096,0.0097,0,0,0,0,0,0,0,0,-0.0023,-0.0021,-0.0016,-0.0014,-0.0012,0.0014,0.0026,0.004,0.0027,0.0012,0.0028,0.0028,0.0064,0.0068,0.0073,0.0102,0.0105,0.0096,0.0097,0.0098,0.0099,0,0,0,0,0,0,0,-0.0024,-0.0022,-0.0015,-0.0015,-0.0013,0.0007,0.0009,0.0029,0.0037,0.0013,0.0015,0.002,0.0065,0.0071,0.0075,0.0106,0.0096,0.0098,0.0099,0.01,0.017,0.0171,0,0,0,0,0,0,-0.0029,-0.0024,-0.0016,-0.0014,-0.0016,0.0007,0.0009,0.0005,0.0036,0.0041,0.002,0.0021,0.0067,0.0072,0.0077,0.0106,0.0098,0.01,0.0102,0.017,0.0171,0.0171,0,0,0,0,0,0,-0.003,-0.0029,-0.0018,-0.0017,-0.0014,0.0006,0.0002,0.0005,0.0012,0.0041,0.0046,0.0023,0.0068,0.0074,0.0099,0.0108,0.0101,0.0103,0.0169,0.017,0.0171,0.0156,0,0,0,0,0,0,-0.003,-0.003,-0.0035,-0.0018,-0.0014,-0.001,0.0002,0.0006,0.0015,0.0017,0.0045,0.0051,0.0068,0.0096,0.0101,0.0111,0.0105,0.0169,0.017,0.0171,0.0155,0.0156,0.0156,0,0,0,0,0,-0.0031,-0.0043,-0.0036,-0.0035,-0.0022,-0.0011,-0.0007,0.0008,0.0015,0.0015,0.004,0.005,0.0107,0.0098,0.0104,0.0115,0.0168,0.0169,0.0171,0.0155,0.0156,0.0156,0,0,0,0,0,0,-0.005,-0.0041,-0.0034,-0.0042,-0.0028,-0.0007,-0.0007,0.0006,0.0025,0.0028,0.0055,0.0063,0.0088,0.0104,0.0094,0.0139,0.014,0.0142,0.0126,0.0127,0.0127,0.0114,0.0107,0,0,0,0,0,-0.0057,-0.0064,-0.0046,-0.0052,-0.0047,-0.0026,-0.0019,-0.0008,0.0012,0.002,0.0043,0.007,0.0098,0.0114,0.0136,0.016,0.0171,0.0172,0.0173,0.0173,0.0167,0.0183,0.0183,0.0175,0.0175,0.0175,0,0,-0.0065,-0.0061,-0.0065,-0.0057,-0.0045,-0.0039,-0.0022,-0.0015,-0.0004,0.0024,0.0044,0.007,0.0104,0.0131,0.0145,0.0146,0.0185,0.0174,0.0174,0.0168,0.0184,0.0185,0.0185,0.0176,0.0176,0.0176,0,0,-0.0085,-0.0082,-0.0093,-0.0083,-0.0068,-0.0052,-0.0051,-0.0029,-0.0014,0.0009,0.0036,0.0066,0.0103,0.0133,0.0153,0.017,0.0183,0.018,0.0174,0.0189,0.019,0.019,0.0217,0.022,0.0183,0.0183,0.0183,0,-0.0094,-0.0107,-0.0093,-0.0097,-0.009,-0.0059,-0.0062,-0.004,-0.001,0.0004,0.0011,0.0074,0.0104,0.0145,0.0155,0.017,0.0181,0.0168,0.0188,0.0189,0.0189,0.0217,0.022,0.0182,0.0182,0.0182,0.0182,0,-0.0118,-0.0126,-0.0131,-0.0125,-0.0114,-0.0112,-0.008,-0.0063,-0.004,-0.0015,0.0023,0.0065,0.0101,0.0123,0.0146,0.0174,0.0182,0.0183,0.0182,0.0189,0.0218,0.0222,0.0181,0.0181,0.0182,0.0182,0,0,-0.0144,-0.0148,-0.015,-0.0156,-0.013,-0.0128,-0.0101,-0.0072,-0.006,-0.002,-0.0003,0.0061,0.0082,0.0106,0.0142,0.0164,0.019,0.0175,0.0176,0.0194,0.023,0.0218,0.0222,0.0189,0.0189,0.0189,0.0253,0,-0.0166,-0.019,-0.0177,-0.0189,-0.0197,-0.0159,-0.014,-0.0107,-0.0072,-0.0048,0.0008,0.0036,0.0078,0.0092,0.0124,0.0164,0.0197,0.0174,0.0228,0.023,0.0211,0.0224,0.019,0.0255,0.0256,0.0257,0.0257,0,-0.0191,-0.0206,-0.0227,-0.023,-0.0229,-0.0225,-0.0196,-0.0175,-0.0119,-0.0093,-0.0047,-0.0008,0.0045,0.0067,0.0149,0.0129,0.0181,0.0217,0.022,0.0213,0.0224,0.0246,0.0264,0.0264,0.0263,0.0263,0.0262,0,-0.0223,-0.024,-0.0262,-0.0262,-0.0254,-0.0253,-0.0242,-0.0192,-0.0179,-0.0126,-0.0117,-0.0043,-0.0021,0.0049,0.014,0.0139,0.022,0.0226,0.0273,0.0274,0.0271,0.027,0.0286,0.0286,0.0285,0.0285,0.0285,0,-0.025,-0.027,-0.0286,-0.0299,-0.0326,-0.0299,-0.0307,-0.0276,-0.024,-0.0233,-0.0151,-0.0134,-0.003,0.0036,0.0123,0.0209,0.0212,0.0273,0.0286,0.0267,0.0264,0.0275,0.0273,0.0288,0.0287,0.0287,0.0286,0,-0.0277,-0.0286,-0.0321,-0.0335,-0.0344,-0.0363,-0.0367,-0.0369,-0.0322,-0.0312,-0.03,-0.0212,-0.0124,-0.0003,0.011,0.0175,0.0265,0.0302,0.0283,0.0293,0.0316,0.0313,0.0349,0.0349,0.0349,0.0349,0.0349,0,-0.0289,-0.031,-0.0359,-0.0392,-0.0404,-0.0431,-0.0447,-0.0416,-0.0413,-0.036,-0.036,-0.0273,-0.02,-0.0045,0.0082,0.0252,0.0278,0.0325,0.0317,0.0312,0.0321,0.0318,0.0315,0.0349,0.0349,0.0349,0.0349,0,-0.0313,-0.0334,-0.0367,-0.0438,-0.0478,-0.0518,-0.0537,-0.0542,-0.0498,-0.0468,-0.0411,-0.031,-0.0208,-0.0066,0.0074,0.0195,0.0288,0.0326,0.0327,0.032,0.0313,0.0321,0.0318,0.035,0.035,0.035,0.035,0,-0.0329,-0.0365,-0.0415,-0.0474,-0.0536,-0.0581,-0.0589,-0.0582,-0.057,-0.0495,-0.0486,-0.0349,-0.027,-0.0095,0.0029,0.015,0.0178,0.0206,0.0214,0.0215,0.0159,0.013,0.0119,0,0,0,0,0,-0.0337,-0.038,-0.0446,-0.0515,-0.058,-0.0606,-0.0634,-0.0628,-0.0593,-0.0564,-0.0517,-0.0412,-0.0224,-0.0143,-0.0025,0.0029,0.0198,0.017,0.0234,0.035,0.035,0.0305,0,0,0,0,0,0,-0.0345,-0.0405,-0.0445,-0.0532,-0.0582,-0.0643,-0.066,-0.0642,-0.0612,-0.0565,-0.0466,-0.0396,-0.0212,-0.0291,-0.0026,0.0012,0.0065,0.0267,0.0269,0.035,0.035,0.035,0.0303,0,0,0,0,0]}]]